Hailey, ID

2:50 PM MDT on March 30, 2017 (GMT -0600)
Friedman Memorial

Weather History for KSUN - October, 2012

Change the Weather History Date:

Sunday, October 28, 2012

  Actual Average Record
Temperature  
Mean Temperature 46 °F -  
Max Temperature 60 °F 49 °F 71 °F (2008)
Min Temperature 33 °F 27 °F 19 °F (1996)
Degree Days  
Heating Degree Days 18    
Moisture  
Dew Point 37 °F    
Average Humidity 87    
Maximum Humidity 100    
Minimum Humidity 45    
Precipitation  
Precipitation 0.00 in - - ()
Sea Level Pressure  
Sea Level Pressure 30.11 in    
Wind  
Wind Speed 6 mph (NW)    
Max Wind Speed 12 mph    
Max Gust Speed -    
Visibility 10 miles    
Events      
Averages and records for this station are not official NWS values.
T = Trace of Precipitation, MM = Missing Value Source: NWS Daily Summary

Daily Weather History Graph

Daily Weather History Graph

Search for Another Location

Airport or City:

Trip Planner

Search our weather history database for the weather conditions in past years. The results will help you decide how hot, cold, wet, or windy it might be!

Date:

Astronomy

Oct. 28, 2012 Rise Set
Actual Time 8:08 AM MDT 6:32 PM MDT
Civil Twilight 7:38 AM MDT 7:02 PM MDT
Nautical Twilight 7:05 AM MDT 7:36 PM MDT
Astronomical Twilight 6:31 AM MDT 8:09 PM MDT
Moon 5:53 PM MDT (10/28) 7:04 AM MDT (10/28)
Length of Visible Light 11h 23m
Length of Day
10h 24m
Waxing Gibbous, 99% of the Moon is Illuminated
Oct 28
Waxing Gibbous
Oct 29
Full
Nov 6
Last Quarter
Nov 13
New
Nov 20
First Quarter

Hourly Weather History & Observations

Time (MDT) Temp. Windchill Dew Point Humidity Pressure Visibility Wind Dir Wind Speed Gust Speed Precip Events Conditions
12:35 AM 33.8 °F 28.6 °F 32.0 °F 93% 30.13 in 10.0 mi NNW 5.8 mph - N/A   Mostly Cloudy
12:55 AM 33.8 °F 28.6 °F 32.0 °F 93% 30.13 in 10.0 mi NW 5.8 mph - N/A   Mostly Cloudy
1:15 AM 33.8 °F 28.6 °F 32.0 °F 93% 30.13 in 10.0 mi NW 5.8 mph - N/A   Overcast
1:55 AM 33.8 °F 27.7 °F 32.0 °F 93% 30.13 in 10.0 mi NW 6.9 mph - N/A   Overcast
2:15 AM 33.8 °F 27.7 °F 32.0 °F 93% 30.13 in 10.0 mi NW 6.9 mph - N/A   Overcast
2:35 AM 35.6 °F 30.7 °F 33.8 °F 93% 30.12 in 10.0 mi NW 5.8 mph - N/A   Overcast
2:55 AM 35.6 °F 30.7 °F 33.8 °F 93% 30.13 in 10.0 mi NNW 5.8 mph - N/A   Overcast
3:15 AM 35.6 °F 32.8 °F 33.8 °F 93% 30.12 in 10.0 mi WNW 3.5 mph - N/A   Overcast
3:35 AM 35.6 °F 32.8 °F 33.8 °F 93% 30.12 in 10.0 mi NW 3.5 mph - N/A   Overcast
3:55 AM 35.6 °F 31.7 °F 33.8 °F 93% 30.11 in 10.0 mi NW 4.6 mph - N/A   Overcast
4:15 AM 35.6 °F 31.7 °F 33.8 °F 93% 30.11 in 10.0 mi NNW 4.6 mph - N/A   Overcast
4:35 AM 35.6 °F 31.7 °F 33.8 °F 93% 30.11 in 10.0 mi NW 4.6 mph - N/A   Overcast
4:55 AM 35.6 °F 32.8 °F 33.8 °F 93% 30.11 in 10.0 mi NNW 3.5 mph - N/A   Mostly Cloudy
5:15 AM 35.6 °F 30.7 °F 33.8 °F 93% 30.11 in 10.0 mi WNW 5.8 mph - N/A   Mostly Cloudy
5:35 AM 35.6 °F 31.7 °F 33.8 °F 93% 30.11 in 10.0 mi WNW 4.6 mph - N/A   Scattered Clouds
5:55 AM 35.6 °F 30.7 °F 33.8 °F 93% 30.11 in 10.0 mi NNW 5.8 mph - N/A   Mostly Cloudy
6:15 AM 35.6 °F 31.7 °F 33.8 °F 93% 30.11 in 10.0 mi NW 4.6 mph - N/A   Scattered Clouds
6:35 AM 35.6 °F 29.9 °F 33.8 °F 93% 30.11 in 10.0 mi NW 6.9 mph - N/A   Scattered Clouds
6:55 AM 35.6 °F 29.9 °F 33.8 °F 93% 30.11 in 10.0 mi WNW 6.9 mph - N/A   Scattered Clouds
7:47 AM 35.6 °F 30.7 °F 33.8 °F 93% 30.11 in 10.0 mi WNW 5.8 mph - N/A   Mostly Cloudy
8:47 AM 35.6 °F 30.7 °F 35.6 °F 100% 30.12 in 7.0 mi WNW 5.8 mph - N/A   Scattered Clouds
9:47 AM 39.2 °F 37.0 °F 35.6 °F 87% 30.12 in 10.0 mi WNW 3.5 mph - N/A   Scattered Clouds
11:47 AM 50.0 °F - 42.8 °F 76% 30.12 in 10.0 mi Calm Calm - N/A   Mostly Cloudy
12:50 PM 57.2 °F - 42.8 °F 59% 30.10 in 10.0 mi WSW 11.5 mph - N/A   Mostly Cloudy
1:50 PM 60.8 °F - 39.2 °F 45% 30.08 in 10.0 mi WSW 9.2 mph - N/A   Mostly Cloudy
3:47 PM 59.0 °F - 41.0 °F 51% 30.07 in 10.0 mi West 6.9 mph - N/A   Mostly Cloudy
4:55 PM 57.2 °F - 42.8 °F 59% 30.08 in 10.0 mi SW 5.8 mph - N/A   Mostly Cloudy
6:47 PM 53.6 °F - 44.6 °F 72% 30.09 in 10.0 mi NNW 5.8 mph - N/A   Overcast
7:47 PM 51.8 °F - 46.4 °F 82% 30.10 in 10.0 mi West 6.9 mph - N/A   Overcast
8:47 PM 48.2 °F - 44.6 °F 87% 30.10 in 10.0 mi NW 9.2 mph - N/A   Mostly Cloudy
9:47 PM 46.4 °F 42.4 °F 44.6 °F 93% 30.11 in 10.0 mi NW 8.1 mph - N/A   Mostly Cloudy
10:47 PM 46.4 °F - 44.6 °F 93% 30.12 in 10.0 mi Calm Calm - N/A   Mostly Cloudy
11:15 PM 44.6 °F 42.2 °F 42.8 °F 93% 30.12 in 10.0 mi North 4.6 mph - N/A   Overcast
11:35 PM 44.6 °F 42.2 °F 42.8 °F 93% 30.12 in 10.0 mi WNW 4.6 mph - N/A   Mostly Cloudy
11:55 PM 44.6 °F 43.1 °F 42.8 °F 93% 30.12 in 10.0 mi WNW 3.5 mph - N/A   Mostly Cloudy